Date,Installs,Update checks
2015-09-03,4,1
2015-09-04,81,29
2015-09-05,4,73
2015-09-06,8,39
2015-09-07,16,108
2015-09-08,11,123
2015-09-09,3,134
2015-09-10,9,137
2015-09-11,4,118
2015-09-12,1,111
2015-09-13,2,107
2015-09-14,2,167
2015-09-15,2,128
2015-09-16,22,180
2015-09-17,16,182
2015-09-18,5,210
2015-09-19,2,146
2015-09-20,0,171
2015-09-21,1,233
2015-09-22,2,204
2015-09-23,4,221
2015-09-24,2,197
2015-09-25,0,212
2015-09-26,0,144
2015-09-27,1,175
2015-09-28,0,209
2015-09-29,1,195
2015-09-30,2,218
2015-10-01,5,192
2015-10-02,3,211
2015-10-03,0,158
2015-10-04,0,148
2015-10-05,1,231
2015-10-06,1,167
2015-10-07,0,232
2015-10-08,0,187
2015-10-09,1,198
2015-10-10,0,149
2015-10-11,0,159
2015-10-12,0,211
2015-10-13,0,184
2015-10-14,0,226
2015-10-15,1,184
2015-10-16,1,209
2015-10-17,2,140
2015-10-18,0,174
2015-10-19,1,218
2015-10-20,0,187
2015-10-21,0,219
2015-10-22,2,183
2015-10-23,0,217
2015-10-24,0,145
2015-10-25,0,172
2015-10-26,0,212
2015-10-27,0,191
2015-10-28,1,218
2015-10-29,0,190
2015-10-30,0,205
2015-10-31,0,152
2015-11-01,0,157
2015-11-02,0,220
2015-11-03,0,191
2015-11-04,0,209
2015-11-05,0,175
2015-11-06,0,184
2015-11-07,0,137
2015-11-08,0,155
2015-11-09,0,180
2015-11-10,0,148
2015-11-11,0,162
2015-11-12,0,132
2015-11-13,0,134
2015-11-14,0,115
2015-11-15,0,107
2015-11-16,0,144
2015-11-17,0,99
2015-11-18,1,110
2015-11-19,0,96
2015-11-20,0,107
2015-11-21,0,57
2015-11-22,0,73
2015-11-23,0,79
2015-11-24,0,61
2015-11-25,0,66
2015-11-26,0,48
2015-11-27,0,48
2015-11-28,0,42
2015-11-29,1,48
2015-11-30,0,65
2015-12-01,0,45
2015-12-02,0,54
2015-12-03,0,45
2015-12-04,0,60
2015-12-05,0,33
2015-12-06,0,45
2015-12-07,0,45
2015-12-08,0,48
2015-12-09,0,40
2015-12-10,0,51
2015-12-11,0,45
2015-12-12,0,38
2015-12-13,0,33
2015-12-14,0,50
2015-12-15,0,47
2015-12-16,0,46
2015-12-17,0,50
2015-12-18,0,40
2015-12-19,0,34
2015-12-20,0,31
2015-12-21,0,40
2015-12-22,1,41
2015-12-23,0,35
2015-12-24,0,39
2015-12-25,0,17
2015-12-26,1,37
2015-12-27,0,23
2015-12-28,0,51
2015-12-29,0,31
2015-12-30,0,47
2015-12-31,0,22
2016-01-01,0,36
2016-01-02,0,26
2016-01-03,0,36
2016-01-04,0,41
2016-01-05,0,36
2016-01-06,0,42
2016-01-07,0,41
2016-01-08,0,35
2016-01-09,0,31
2016-01-10,0,29
2016-01-11,0,41
2016-01-12,0,35
2016-01-13,0,42
2016-01-14,0,32
2016-01-15,0,42
2016-01-16,0,23
2016-01-17,0,30
2016-01-18,0,34
2016-01-19,0,44
2016-01-20,0,36
2016-01-21,0,44
2016-01-22,0,31
2016-01-23,0,35
2016-01-24,0,26
2016-01-25,0,45
2016-01-26,0,28
2016-01-27,0,46
2016-01-28,0,33
2016-01-29,0,36
2016-01-30,0,27
2016-01-31,0,29
2016-02-01,0,40
2016-02-02,0,37
2016-02-03,0,40
2016-02-04,0,31
2016-02-05,0,37
2016-02-06,0,35
2016-02-07,0,26
2016-02-08,0,40
2016-02-09,0,35
2016-02-10,0,36
2016-02-11,0,38
2016-02-12,0,32
2016-02-13,0,27
2016-02-14,0,24
2016-02-15,0,37
2016-02-16,0,34
2016-02-17,0,36
2016-02-18,0,37
2016-02-19,0,33
2016-02-20,0,31
2016-02-21,0,30
2016-02-22,0,37
2016-02-23,0,31
2016-02-24,0,35
2016-02-25,0,29
2016-02-26,0,34
2016-02-27,0,26
2016-02-28,0,23
2016-02-29,0,35
2016-03-01,0,34
2016-03-02,0,34
2016-03-03,0,37
2016-03-04,0,31
2016-03-05,0,29
2016-03-06,0,23
2016-03-07,0,44
2016-03-08,0,24
2016-03-09,0,40
2016-03-10,0,26
2016-03-11,0,41
2016-03-12,0,22
2016-03-13,0,28
2016-03-14,0,33
2016-03-15,0,31
2016-03-16,0,33
2016-03-17,0,33
2016-03-18,0,30
2016-03-19,0,32
2016-03-20,0,23
2016-03-21,0,38
2016-03-22,0,29
2016-03-23,0,30
2016-03-24,0,31
2016-03-25,0,27
2016-03-26,0,24
2016-03-27,0,25
2016-03-28,0,35
2016-03-29,0,31
2016-03-30,0,28
2016-03-31,0,30
2016-04-01,0,28
2016-04-02,0,25
2016-04-03,0,22
2016-04-04,0,35
2016-04-05,0,25
2016-04-06,0,29
2016-04-07,0,23
2016-04-08,0,32
2016-04-09,0,27
2016-04-10,0,16
2016-04-11,0,33
2016-04-12,0,24
2016-04-13,0,27
2016-04-14,0,26
2016-04-15,0,26
2016-04-16,0,23
2016-04-17,0,21
2016-04-18,0,32
2016-04-19,0,21
2016-04-20,0,27
2016-04-21,0,26
2016-04-22,0,27
2016-04-23,0,25
2016-04-24,0,25
2016-04-25,0,31
2016-04-26,0,26
2016-04-27,0,31
2016-04-28,0,23
2016-04-29,0,29
2016-04-30,0,22
2016-05-01,0,20
2016-05-02,0,24
2016-05-03,0,25
2016-05-04,0,21
2016-05-05,0,29
2016-05-06,0,21
2016-05-07,0,26
2016-05-08,0,20
2016-05-09,0,27
2016-05-10,0,22
2016-05-11,0,29
2016-05-12,0,20
2016-05-13,0,24
2016-05-14,0,21
2016-05-15,0,16
2016-05-16,0,27
2016-05-17,0,26
2016-05-18,0,27
2016-05-19,0,26
2016-05-20,0,32
2016-05-21,0,33
2016-05-22,0,29
2016-05-23,0,41
2016-05-24,0,40
2016-05-25,0,47
2016-05-26,0,48
2016-05-27,0,54
2016-05-28,0,40
2016-05-29,0,48
2016-05-30,0,55
2016-05-31,0,84
2016-06-01,0,68
2016-06-02,0,91
2016-06-03,0,80
2016-06-04,0,71
2016-06-05,0,74
2016-06-06,0,103
2016-06-07,0,83
2016-06-08,0,107
2016-06-09,0,86
2016-06-10,0,106
2016-06-11,0,65
2016-06-12,0,77
2016-06-13,0,88
2016-06-14,0,80
2016-06-15,0,99
2016-06-16,0,88
2016-06-17,0,90
2016-06-18,0,74
2016-06-19,0,72
2016-06-20,0,99
2016-06-21,0,91
2016-06-22,0,95
2016-06-23,0,85
2016-06-24,0,93
2016-06-25,0,67
2016-06-26,0,80
2016-06-27,0,85
2016-06-28,0,90
2016-06-29,0,105
2016-06-30,0,80
2016-07-01,0,95
2016-07-02,0,64
2016-07-03,0,80
2016-07-04,0,65
2016-07-05,0,87
2016-07-06,0,86
2016-07-07,0,96
2016-07-08,0,82
2016-07-09,0,78
2016-07-10,0,60
2016-07-11,0,99
2016-07-12,0,78
2016-07-13,0,108
2016-07-14,0,75
2016-07-15,0,96
2016-07-16,0,76
2016-07-17,0,68
2016-07-18,0,92
2016-07-19,0,91
2016-07-20,0,87
2016-07-21,0,101
2016-07-22,0,76
2016-07-23,0,78
2016-07-24,0,65
2016-07-25,0,100
2016-07-26,0,73
2016-07-27,0,103
2016-07-28,0,69
2016-07-29,0,98
2016-07-30,0,57
2016-07-31,0,83
2016-08-01,0,83
2016-08-02,0,80
2016-08-03,0,76
2016-08-04,0,95
2016-08-05,0,73
2016-08-06,0,76
2016-08-07,0,64
2016-08-08,0,95
2016-08-09,0,75
2016-08-10,0,101
2016-08-11,0,73
2016-08-12,0,93
2016-08-13,0,58
2016-08-14,0,80
2016-08-15,0,83
2016-08-16,0,81
2016-08-17,0,94
2016-08-18,0,81
2016-08-19,0,92
2016-08-20,0,62
2016-08-21,0,69
2016-08-22,0,86
2016-08-23,0,70
2016-08-24,0,102
2016-08-25,0,64
2016-08-26,0,99
2016-08-27,0,73
2016-08-28,0,79
2016-08-29,1,89
2016-08-30,2,92
2016-08-31,0,87
2016-09-01,0,90
2016-09-02,2,91
2016-09-03,3,61
2016-09-04,3,73
2016-09-05,1,77
2016-09-06,2,99
2016-09-07,1,84
2016-09-08,2,102
2016-09-09,0,89
2016-09-10,0,71
2016-09-11,2,73
2016-09-12,0,97
2016-09-13,1,88
2016-09-14,0,104
2016-09-15,0,77
2016-09-16,0,94
2016-09-17,0,67
2016-09-18,1,87
2016-09-19,0,98
2016-09-20,0,88
2016-09-21,0,102
2016-09-22,0,82
2016-09-23,1,90
2016-09-24,0,71
2016-09-25,0,71
2016-09-26,0,97
2016-09-27,0,84
2016-09-28,0,98
2016-09-29,0,99
2016-09-30,0,92
2016-10-01,0,73
2016-10-02,0,65
2016-10-03,0,110
2016-10-04,0,81
2016-10-05,1,111
2016-10-06,0,87
2016-10-07,0,103
2016-10-08,0,65
2016-10-09,0,78
2016-10-10,0,86
2016-10-11,1,97
2016-10-12,0,87
2016-10-13,0,102
2016-10-14,0,80
2016-10-15,0,84
2016-10-16,0,55
2016-10-17,0,112
2016-10-18,0,77
2016-10-19,0,116
2016-10-20,0,71
2016-10-21,0,111
2016-10-22,0,61
2016-10-23,0,74
2016-10-24,0,92
2016-10-25,0,90
2016-10-26,0,90
2016-10-27,0,93
2016-10-28,0,85
2016-10-29,0,76
2016-10-30,0,60
2016-10-31,0,113
2016-11-01,0,71
2016-11-02,0,109
2016-11-03,0,77
2016-11-04,0,109
2016-11-05,0,57
2016-11-06,0,74
2016-11-07,0,87
2016-11-08,0,87
2016-11-09,0,90
2016-11-10,0,89
2016-11-11,0,75
2016-11-12,0,66
2016-11-13,0,69
2016-11-14,0,88
2016-11-15,0,80
2016-11-16,0,85
2016-11-17,0,85
2016-11-18,0,95
2016-11-19,0,67
2016-11-20,0,74
2016-11-21,0,81
2016-11-22,1,81
2016-11-23,0,75
2016-11-24,0,64
2016-11-25,0,71
2016-11-26,0,53
2016-11-27,0,77
2016-11-28,0,88
2016-11-29,0,83
2016-11-30,0,90
2016-12-01,1,69
2016-12-02,0,91
2016-12-03,0,71
2016-12-04,0,72
2016-12-05,0,80
2016-12-06,1,79
2016-12-07,0,79
2016-12-08,0,93
2016-12-09,0,82
2016-12-10,0,66
2016-12-11,0,64
2016-12-12,0,85
2016-12-13,0,86
2016-12-14,0,81
2016-12-15,1,77
2016-12-16,1,83
2016-12-17,0,65
2016-12-18,0,68
2016-12-19,0,77
2016-12-20,0,69
2016-12-21,1,92
2016-12-22,0,77
2016-12-23,0,73
2016-12-24,0,64
2016-12-25,0,47
2016-12-26,0,69
2016-12-27,0,62
2016-12-28,0,84
2016-12-29,0,59
2016-12-30,0,80
2016-12-31,0,60
2017-01-01,0,54
2017-01-02,0,73
2017-01-03,0,80
2017-01-04,0,74
2017-01-05,0,83
2017-01-06,0,65
2017-01-07,0,69
2017-01-08,0,52
2017-01-09,0,86
2017-01-10,0,68
2017-01-11,0,80
2017-01-12,0,72
2017-01-13,0,79
2017-01-14,0,60
2017-01-15,0,65
2017-01-16,0,66
2017-01-17,0,73
2017-01-18,0,76
2017-01-19,0,80
2017-01-20,0,71
2017-01-21,0,60
2017-01-22,0,56
2017-01-23,0,77
2017-01-24,0,65
2017-01-25,0,80
2017-01-26,0,63
2017-01-27,0,78
2017-01-28,0,49
2017-01-29,0,67
2017-01-30,0,76
2017-01-31,0,66
2017-02-01,0,77
2017-02-02,0,79
2017-02-03,0,65
2017-02-04,0,60
2017-02-05,0,57
2017-02-06,0,81
2017-02-07,0,61
2017-02-08,0,85
2017-02-09,0,64
2017-02-10,0,82
2017-02-11,0,58
2017-02-12,0,59
2017-02-13,0,79
2017-02-14,0,65
2017-02-15,0,86
2017-02-16,0,54
2017-02-17,0,84
2017-02-18,0,50
2017-02-19,0,62
2017-02-20,0,70
2017-02-21,0,71
2017-02-22,0,76
2017-02-23,0,70
2017-02-24,0,66
2017-02-25,0,56
2017-02-26,0,58
2017-02-27,0,70
2017-02-28,0,64
2017-03-01,0,76
2017-03-02,0,68
2017-03-03,0,71
2017-03-04,0,59
2017-03-05,0,57
2017-03-06,0,72
2017-03-07,0,53
2017-03-08,0,72
2017-03-09,0,60
2017-03-10,0,76
2017-03-11,0,51
2017-03-12,0,59
2017-03-13,0,68
2017-03-14,0,58
2017-03-15,0,73
2017-03-16,0,56
2017-03-17,0,70
2017-03-18,0,48
2017-03-19,0,61
2017-03-20,1,57
2017-03-21,0,67
2017-03-22,0,54
2017-03-23,0,62
2017-03-24,0,68
2017-03-25,0,50
2017-03-26,0,56
2017-03-27,0,63
2017-03-28,0,63
2017-03-29,0,60
2017-03-30,0,61
2017-03-31,0,65
2017-04-01,0,52
2017-04-02,0,56
2017-04-03,0,59
2017-04-04,0,61
2017-04-05,0,67
2017-04-06,0,57
2017-04-07,0,53
2017-04-08,0,57
2017-04-09,0,44
2017-04-10,0,66
2017-04-11,0,54
2017-04-12,0,67
2017-04-13,0,50
2017-04-14,0,56
2017-04-15,0,57
2017-04-16,0,45
2017-04-17,0,66
2017-04-18,0,51
2017-04-19,0,70
2017-04-20,0,51
2017-04-21,0,57
2017-04-22,0,1
2017-04-23,0,80
2017-04-24,0,37
2017-04-25,0,78
2017-04-26,0,48
2017-04-27,0,69
2017-04-28,0,43
2017-04-29,0,63
2017-04-30,0,30
2017-05-01,0,82
2017-05-02,0,40
2017-05-03,0,75
2017-05-04,0,41
2017-05-05,0,75
2017-05-06,0,43
2017-05-07,0,54
2017-05-08,0,52
2017-05-09,0,58
2017-05-10,0,56
2017-05-11,0,50
2017-05-12,0,59
2017-05-13,0,49
2017-05-14,0,41
2017-05-15,0,63
2017-05-16,0,50
2017-05-17,0,74
2017-05-18,0,51
2017-05-19,0,56
2017-05-20,0,43
2017-05-21,0,46
2017-05-22,0,48
2017-05-23,0,58
2017-05-24,0,52
2017-05-25,0,59
2017-05-26,1,55
2017-05-27,0,52
2017-05-28,0,35
2017-05-29,0,45
2017-05-30,0,61
2017-05-31,0,48
2017-06-01,0,60
2017-06-02,0,54
2017-06-03,0,45
2017-06-04,0,44
2017-06-05,0,57
2017-06-06,0,50
2017-06-07,0,56
2017-06-08,0,50
2017-06-09,0,51
2017-06-10,0,38
2017-06-11,0,44
2017-06-12,0,58
2017-06-13,0,46
2017-06-14,0,51
2017-06-15,0,54
2017-06-16,0,52
2017-06-17,0,37
2017-06-18,0,41
2017-06-19,0,59
2017-06-20,0,42
2017-06-21,0,57
2017-06-22,0,48
2017-06-23,0,56
2017-06-24,0,37
2017-06-25,0,42
2017-06-26,0,54
2017-06-27,0,46
2017-06-28,0,51
2017-06-29,0,58
2017-06-30,0,46
2017-07-01,0,34
2017-07-02,0,37
2017-07-03,0,46
2017-07-04,0,36
2017-07-05,0,57
2017-07-06,0,45
2017-07-07,0,48
2017-07-08,0,37
2017-07-09,0,34
2017-07-10,0,55
2017-07-11,0,40
2017-07-12,1,60
2017-07-13,0,43
2017-07-14,0,49
2017-07-15,0,44
2017-07-16,0,32
2017-07-17,0,46
2017-07-18,0,46
2017-07-19,0,46
2017-07-20,0,53
2017-07-21,0,82
2017-07-22,0,26
2017-07-23,0,55
2017-07-24,0,50
2017-07-25,0,55
2017-07-26,0,55
2017-07-27,0,55
2017-07-28,0,57
2017-07-29,0,44
2017-07-30,0,43
2017-07-31,0,59
2017-08-01,0,49
2017-08-02,0,59
2017-08-03,0,60
2017-08-04,0,51
2017-08-05,0,44
2017-08-06,0,36
2017-08-07,0,52
2017-08-08,0,56
2017-08-09,0,55
2017-08-10,0,58
2017-08-11,0,59
2017-08-12,0,47
2017-08-13,0,40
2017-08-14,0,50
2017-08-15,0,47
2017-08-16,0,45
2017-08-17,0,50
2017-08-18,0,49
2017-08-19,0,47
2017-08-20,0,37
2017-08-21,0,57
2017-08-22,0,52
2017-08-23,0,49
2017-08-24,0,53
2017-08-25,1,43
2017-08-26,0,44
2017-08-27,0,50
2017-08-28,1,58
2017-08-29,0,59
2017-08-30,0,51
2017-08-31,0,66
2017-09-01,1,48
2017-09-02,0,50
2017-09-03,0,44
2017-09-04,0,48
2017-09-05,1,58
2017-09-06,0,46
2017-09-07,0,60
2017-09-08,0,59
2017-09-09,0,44
2017-09-10,1,58
2017-09-11,0,57
2017-09-12,0,65
2017-09-13,0,55
2017-09-14,0,75
2017-09-15,0,68
2017-09-16,0,43
2017-09-17,0,58
2017-09-18,0,58
2017-09-19,0,66
2017-09-20,0,55
2017-09-21,0,60
2017-09-22,0,51
2017-09-23,0,44
2017-09-24,0,62
2017-09-25,0,59
2017-09-26,0,67
2017-09-27,1,55
2017-09-28,0,62
2017-09-29,0,59
2017-09-30,0,49
2017-10-01,0,47
2017-10-02,0,57
2017-10-03,0,59
2017-10-04,0,59
2017-10-05,0,55
2017-10-06,0,57
2017-10-07,0,46
2017-10-08,0,44
2017-10-09,0,58
2017-10-10,0,48
2017-10-11,0,53
2017-10-12,0,60
2017-10-13,0,56
2017-10-14,0,52
2017-10-15,0,45
2017-10-16,0,57
2017-10-17,0,54
2017-10-18,0,54
2017-10-19,0,58
2017-10-20,0,53
2017-10-21,0,51
2017-10-22,0,43
2017-10-23,0,57
2017-10-24,0,57
2017-10-25,0,56
2017-10-26,0,58
2017-10-27,0,57
2017-10-28,0,44
2017-10-29,0,45
2017-10-30,0,52
2017-10-31,0,57
2017-11-01,0,52
2017-11-02,0,54
2017-11-03,1,49
2017-11-04,0,43
2017-11-05,0,45
2017-11-06,0,48
2017-11-07,0,52
2017-11-08,0,52
2017-11-09,0,62
2017-11-10,0,47
2017-11-11,0,40
2017-11-12,0,41
2017-11-13,0,57
2017-11-14,0,52
2017-11-15,0,59
2017-11-16,0,42
2017-11-17,0,54
2017-11-18,0,44
2017-11-19,0,50
2017-11-20,0,39
2017-11-21,0,54
2017-11-22,0,42
2017-11-23,0,32
2017-11-24,0,36
2017-11-25,0,27
2017-11-26,0,40
2017-11-27,0,45
2017-11-28,0,48
2017-11-29,0,40
2017-11-30,0,55
2017-12-01,0,48
2017-12-02,0,36
2017-12-03,0,42
2017-12-04,0,45
2017-12-05,0,48
2017-12-06,0,47
2017-12-07,0,49
2017-12-08,0,46
2017-12-09,0,37
2017-12-10,0,40
2017-12-11,0,50
2017-12-12,0,40
2017-12-13,0,45
2017-12-14,0,41
2017-12-15,0,34
2017-12-16,0,31
2017-12-17,0,34
2017-12-18,0,44
2017-12-19,0,40
2017-12-20,0,38
2017-12-21,0,34
2017-12-22,0,42
2017-12-23,0,31
2017-12-24,0,28
2017-12-25,0,23
2017-12-26,0,39
2017-12-27,0,35
2017-12-28,0,38
2017-12-29,0,32
2017-12-30,0,29
2017-12-31,0,38
2018-01-01,0,32
2018-01-02,0,40
2018-01-03,0,40
2018-01-04,0,41
2018-01-05,0,39
2018-01-06,0,34
2018-01-07,0,32
2018-01-08,0,33
2018-01-09,0,46
2018-01-10,0,29
2018-01-11,0,38
2018-01-12,0,40
2018-01-13,0,30
2018-01-14,0,28
2018-01-15,0,28
2018-01-16,0,36
2018-01-17,0,36
2018-01-18,0,41
2018-01-19,0,35
2018-01-20,0,25
2018-01-21,0,33
2018-01-22,0,41
2018-01-23,0,33
2018-01-24,0,36
2018-01-25,0,36
2018-01-26,0,38
2018-01-27,0,31
2018-01-28,0,33
2018-01-29,0,36
2018-01-30,0,33
2018-01-31,0,31
2018-02-01,0,48
2018-02-02,0,29
2018-02-03,0,29
2018-02-04,0,29
2018-02-05,0,31
2018-02-06,0,34
2018-02-07,0,31
2018-02-08,0,26
2018-02-09,0,28
2018-02-10,0,26
2018-02-11,0,21
2018-02-12,0,27
2018-02-13,0,35
2018-02-14,0,35
2018-02-15,0,29
2018-02-16,0,34
2018-02-17,0,32
2018-02-18,0,29
2018-02-19,0,35
2018-02-20,0,35
2018-02-21,0,25
2018-02-22,0,37
2018-02-23,0,36
2018-02-24,0,32
2018-02-25,0,14
2018-02-26,0,24
2018-02-27,0,22
2018-02-28,0,22
2018-03-01,0,20
2018-03-02,0,21
2018-03-03,0,21
2018-03-04,0,15
2018-03-05,0,25
2018-03-06,0,21
2018-03-07,0,21
2018-03-08,0,23
2018-03-09,0,27
2018-03-10,0,17
2018-03-11,0,15
2018-03-12,0,22
2018-03-13,0,21
2018-03-14,0,20
2018-03-15,0,30
2018-03-16,0,24
2018-03-17,0,22
2018-03-18,0,21
2018-03-19,0,27
2018-03-20,0,21
2018-03-21,0,25
2018-03-22,0,31
2018-03-23,0,17
2018-03-24,0,21
2018-03-25,0,17
2018-03-26,0,23
2018-03-27,0,28
2018-03-28,0,25
2018-03-29,0,22
2018-03-30,0,24
2018-03-31,0,18
2018-04-01,0,14
2018-04-02,0,29
2018-04-03,0,22
2018-04-04,0,27
2018-04-05,0,21
2018-04-06,0,20
2018-04-07,0,21
2018-04-08,0,18
2018-04-09,0,20
2018-04-10,0,29
2018-04-11,0,17
2018-04-12,0,23
2018-04-13,0,20
2018-04-14,0,20
2018-04-15,0,19
2018-04-16,0,22
2018-04-17,0,20
2018-04-18,0,27
2018-04-19,0,25
2018-04-20,0,26
2018-04-21,0,17
2018-04-22,1,22
2018-04-23,0,14
2018-04-24,0,23
2018-04-25,0,24
2018-04-26,0,19
2018-04-27,0,25
2018-04-28,0,14
2018-04-29,0,25
2018-04-30,0,31
2018-05-01,0,17
2018-05-02,0,24
2018-05-03,0,20
2018-05-04,0,22
2018-05-05,0,14
2018-05-06,0,17
2018-05-07,0,20
2018-05-08,0,16
2018-05-09,0,24
2018-05-10,0,26
2018-05-11,0,14
2018-05-12,0,14
2018-05-13,0,15
2018-05-14,0,20
2018-05-15,0,23
2018-05-16,0,19
2018-05-17,0,16
2018-05-18,0,14
2018-05-19,0,12
2018-05-20,0,14
2018-05-21,0,12
2018-05-22,0,21
2018-05-23,0,16
2018-05-24,0,19
2018-05-25,0,16
2018-05-26,0,16
2018-05-27,0,16
2018-05-28,0,12
2018-05-29,0,20
2018-05-30,0,16
2018-05-31,0,20
2018-06-01,0,17
2018-06-02,0,12
2018-06-03,0,11
2018-06-04,0,14
2018-06-05,0,13
2018-06-06,0,16
2018-06-07,0,13
2018-06-08,0,13
2018-06-09,0,12
2018-06-10,0,8
2018-06-11,0,17
2018-06-12,0,16
2018-06-13,0,16
2018-06-14,0,18
2018-06-15,0,12
2018-06-16,0,14
2018-06-17,0,6
2018-06-18,0,15
2018-06-19,0,14
2018-06-20,0,14
2018-06-21,0,12
2018-06-22,0,14
2018-06-23,0,7
2018-06-24,0,10
2018-06-25,0,12
2018-06-26,0,11
2018-06-27,0,7
2018-06-28,0,19
2018-06-29,0,13
2018-06-30,0,13
2018-07-01,0,12
2018-07-02,0,10
2018-07-03,0,18
2018-07-04,0,13
2018-07-05,0,14
2018-07-06,0,9
2018-07-07,0,5
2018-07-08,0,8
2018-07-09,0,13
2018-07-10,0,15
2018-07-11,0,10
2018-07-12,0,19
2018-07-13,0,8
2018-07-14,0,15
2018-07-15,0,11
2018-07-16,0,15
2018-07-17,0,14
2018-07-18,0,13
2018-07-19,0,14
2018-07-20,0,16
2018-07-21,0,15
2018-07-22,0,6
2018-07-23,0,15
2018-07-24,0,15
2018-07-25,0,12
2018-07-26,0,15
2018-07-27,0,15
2018-07-28,0,9
2018-07-29,0,16
2018-07-30,0,12
2018-07-31,0,18
2018-08-01,0,14
2018-08-02,0,14
2018-08-03,0,5
2018-08-04,0,8
2018-08-05,0,8
2018-08-06,0,15
2018-08-07,0,13
2018-08-08,1,15
2018-08-09,1,13
2018-08-10,0,15
2018-08-11,0,8
2018-08-12,0,11
2018-08-13,0,15
2018-08-14,0,14
2018-08-15,0,17
2018-08-16,0,16
2018-08-17,0,14
2018-08-18,0,13
2018-08-19,0,13
2018-08-20,0,10
2018-08-21,0,19
2018-08-22,0,12
2018-08-23,0,13
2018-08-24,1,14
2018-08-25,0,7
2018-08-26,0,10
2018-08-27,0,11
2018-08-28,0,13
2018-08-29,0,16
2018-08-30,1,10
2018-08-31,0,12
2018-09-01,0,11
2018-09-02,0,10
2018-09-03,0,15
2018-09-04,0,15
2018-09-05,3,18
2018-09-06,1,19
2018-09-07,0,15
2018-09-08,0,13
2018-09-09,0,11
2018-09-10,0,13
2018-09-11,0,17
2018-09-12,1,17
2018-09-13,0,16
2018-09-14,0,19
2018-09-15,0,12
2018-09-16,0,14
2018-09-17,0,9
2018-09-18,1,17
2018-09-19,0,12
2018-09-20,0,15
2018-09-21,0,9
2018-09-22,0,14
2018-09-23,0,13
2018-09-24,0,16
2018-09-25,0,16
2018-09-26,0,20
2018-09-27,0,20
2018-09-28,0,19
2018-09-29,0,13
2018-09-30,0,14
2018-10-01,0,15
2018-10-02,0,16
2018-10-03,0,19
2018-10-04,0,15
2018-10-05,0,18
2018-10-06,0,13
2018-10-07,0,14
2018-10-08,0,14
2018-10-09,0,18
2018-10-10,0,16
2018-10-11,0,16
2018-10-12,0,16
2018-10-13,0,12
2018-10-14,1,9
2018-10-15,0,13
2018-10-16,0,20
2018-10-17,0,16
2018-10-18,0,19
2018-10-19,0,13
2018-10-20,0,12
2018-10-21,0,15
2018-10-22,0,13
2018-10-23,2,15
2018-10-24,0,20
2018-10-25,0,17
2018-10-26,0,15
2018-10-27,0,15
2018-10-28,0,16
2018-10-29,0,15
2018-10-30,0,16
2018-10-31,0,18
2018-11-01,0,13
2018-11-02,0,17
2018-11-03,0,13
2018-11-04,0,13
2018-11-05,0,13
2018-11-06,0,13
2018-11-07,0,15
2018-11-08,0,14
2018-11-09,0,13
2018-11-10,1,7
2018-11-11,0,19
2018-11-12,0,9
2018-11-13,0,14
2018-11-14,0,16
2018-11-15,0,10
2018-11-16,0,15
2018-11-17,0,11
2018-11-18,0,13
2018-11-19,0,7
2018-11-20,0,15
2018-11-21,0,13
2018-11-22,0,6
2018-11-23,0,6
2018-11-24,0,9
2018-11-25,0,10
2018-11-26,0,15
2018-11-27,0,18
2018-11-28,0,14
2018-11-29,0,14
2018-11-30,0,14
2018-12-01,0,15
2018-12-02,0,13
2018-12-03,0,11
2018-12-04,0,14
2018-12-05,0,14
2018-12-06,0,9
2018-12-07,0,14
2018-12-08,0,11
2018-12-09,0,14
2018-12-10,0,9
2018-12-11,0,16
2018-12-12,0,15
2018-12-13,0,15
2018-12-14,0,20
2018-12-15,0,18
2018-12-16,0,5
2018-12-17,0,9
2018-12-18,0,12
2018-12-19,0,14
2018-12-20,0,13
2018-12-21,0,10
2018-12-22,0,6
2018-12-23,0,4
2018-12-24,0,11
2018-12-25,0,4
2018-12-26,0,5
2018-12-27,0,8
2018-12-28,0,8
2018-12-29,0,6
2018-12-30,0,9
2018-12-31,0,7
2019-01-01,0,10
2019-01-02,0,3
2019-01-03,0,16
2019-01-04,0,11
2019-01-05,0,5
2019-01-06,0,10
2019-01-07,0,12
2019-01-08,0,10
2019-01-09,0,14
2019-01-10,0,13
2019-01-11,0,12
2019-01-12,0,13
2019-01-13,0,11
2019-01-14,0,12
2019-01-15,0,10
2019-01-16,0,10
2019-01-17,0,10
2019-01-18,0,8
2019-01-19,0,5
2019-01-20,0,11
2019-01-21,0,8
2019-01-22,0,8
2019-01-23,0,10
2019-01-24,0,17
2019-01-25,0,10
2019-01-26,0,9
2019-01-27,0,10
2019-01-28,0,9
2019-01-29,0,8
2019-01-30,0,10
2019-01-31,0,8
2019-02-01,0,8
2019-02-02,0,6
2019-02-03,0,10
2019-02-04,0,10
2019-02-05,0,6
2019-02-06,0,10
2019-02-07,0,7
2019-02-08,0,12
2019-02-09,1,7
2019-02-10,0,12
2019-02-11,0,8
2019-02-12,0,11
2019-02-13,0,9
2019-02-14,0,12
2019-02-15,0,9
2019-02-16,0,6
2019-02-17,0,8
2019-02-18,0,12
2019-02-19,0,5
2019-02-20,0,9
2019-02-21,0,7
2019-02-22,0,9
2019-02-23,0,6
2019-02-24,0,6
2019-02-25,1,7
2019-02-26,0,9
2019-02-27,0,8
2019-02-28,0,10
2019-03-01,0,15
2019-03-02,0,7
2019-03-03,0,11
2019-03-04,0,7
2019-03-05,0,8
2019-03-06,0,7
2019-03-07,0,11
2019-03-08,0,8
2019-03-09,0,9
2019-03-10,0,10
2019-03-11,0,6
2019-03-12,0,12
2019-03-13,0,7
2019-03-14,0,17
2019-03-15,0,7
2019-03-16,0,7
2019-03-17,0,8
2019-03-18,0,9
2019-03-19,0,10
2019-03-20,0,10
2019-03-21,0,10
2019-03-22,0,10
2019-03-23,0,10
2019-03-24,0,6
2019-03-25,0,9
2019-03-26,0,11
2019-03-27,0,11
2019-03-28,0,13
2019-03-29,0,7
2019-03-30,0,9
2019-03-31,0,11
2019-04-01,0,7
2019-04-02,0,8
2019-04-03,0,8
2019-04-04,0,11
2019-04-05,0,7
2019-04-06,0,2
2019-04-07,0,5
2019-04-08,0,11
2019-04-09,0,7
2019-04-10,0,11
2019-04-11,0,11
2019-04-12,0,13
2019-04-13,0,6
2019-04-14,0,9
2019-04-15,0,4
2019-04-16,0,9
2019-04-17,0,11
2019-04-18,0,6
2019-04-19,0,10
2019-04-20,0,3
2019-04-21,0,7
2019-04-22,0,3
2019-04-23,0,7
2019-04-24,0,11
2019-04-25,0,8
2019-04-26,0,9
2019-04-27,0,5
2019-04-28,0,7
2019-04-29,0,10
2019-04-30,0,7
2019-05-01,0,9
2019-05-02,0,11
2019-05-03,0,13
2019-05-04,0,8
2019-05-05,0,3
2019-05-06,0,8
2019-05-07,0,8
2019-05-08,0,12
2019-05-09,0,8
2019-05-10,0,9
2019-05-11,0,4
2019-05-12,0,8
2019-05-13,0,5
2019-05-14,0,9
2019-05-15,0,8
2019-05-16,0,8
2019-05-17,0,8
2019-05-18,0,5
2019-05-19,0,5
2019-05-20,0,5
2019-05-21,0,5
2019-05-22,0,11
2019-05-23,0,6
2019-05-24,0,4
2019-05-25,0,3
2019-05-26,0,3
2019-05-27,0,9
2019-05-28,0,4
2019-05-29,0,10
2019-05-30,0,8
2019-05-31,0,10
2019-06-01,0,5
2019-06-02,0,8
2019-06-03,0,9
2019-06-04,0,6
2019-06-05,0,8
2019-06-06,0,9
2019-06-07,0,4
2019-06-08,0,6
2019-06-09,0,6
2019-06-10,0,9
2019-06-11,0,11
2019-06-12,0,6
2019-06-13,0,4
2019-06-14,0,7
2019-06-15,0,8
2019-06-16,0,8
2019-06-17,0,5
2019-06-18,0,7
2019-06-19,0,5
2019-06-20,0,3
2019-06-21,0,5
2019-06-22,0,5
2019-06-23,0,3
2019-06-24,0,3
2019-06-25,0,5
2019-06-26,0,6
2019-06-27,0,4
2019-06-28,0,3
2019-06-29,0,2
2019-06-30,0,2
2019-07-01,0,4
2019-07-02,0,9
2019-07-03,0,9
2019-07-04,0,2
2019-07-05,0,4
2019-07-06,0,3
2019-07-07,0,3
2019-07-08,0,2
2019-07-09,0,10
2019-07-10,0,6
2019-07-11,0,3
2019-07-12,0,2
2019-07-13,0,5
2019-07-14,0,5
2019-07-15,0,6
2019-07-16,0,3
2019-07-17,0,5
2019-07-18,0,5
2019-07-19,0,4
2019-07-20,0,3
2019-07-21,0,0
2019-07-22,0,8
2019-07-23,0,4
2019-07-24,0,3
2019-07-25,0,6
2019-07-26,0,5
2019-07-27,0,0
2019-07-28,0,2
2019-07-29,0,4
2019-07-30,0,2
2019-07-31,0,6
2019-08-01,0,2
2019-08-02,0,5
2019-08-03,0,1
2019-08-04,0,6
2019-08-05,0,6
2019-08-06,0,6
2019-08-07,0,5
2019-08-08,0,8
2019-08-09,0,7
2019-08-10,0,2
2019-08-11,0,6
2019-08-12,0,3
2019-08-13,0,5
2019-08-14,0,5
2019-08-15,0,3
2019-08-16,0,0
2019-08-17,0,1
2019-08-18,1,5
2019-08-19,0,5
2019-08-20,0,8
2019-08-21,0,3
2019-08-22,0,6
2019-08-23,0,8
2019-08-24,0,4
2019-08-25,0,5
2019-08-26,0,5
2019-08-27,0,4
2019-08-28,0,4
2019-08-29,0,7
2019-08-30,0,8
2019-08-31,0,4
2019-09-01,0,4
2019-09-02,0,4
2019-09-03,0,7
2019-09-04,1,4
2019-09-05,0,8
2019-09-06,0,8
2019-09-07,0,2
2019-09-08,1,4
2019-09-09,1,5
2019-09-10,0,10
2019-09-11,1,12
2019-09-12,0,7
2019-09-13,0,10
2019-09-14,0,6
2019-09-15,0,12
2019-09-16,0,3
2019-09-17,0,9
2019-09-18,1,3
2019-09-19,1,9
2019-09-20,0,6
2019-09-21,0,5
2019-09-22,0,10
2019-09-23,0,8
2019-09-24,0,6
2019-09-25,0,8
2019-09-26,0,8
2019-09-27,0,7
2019-09-28,0,4
2019-09-29,0,7
2019-09-30,0,5
2019-10-01,0,10
2019-10-02,0,9
2019-10-03,0,10
2019-10-04,0,12
2019-10-05,0,4
2019-10-06,1,4
2019-10-07,0,4
2019-10-08,0,7
2019-10-09,0,5
2019-10-10,0,7
2019-10-11,0,6
2019-10-12,0,8
2019-10-13,0,6
2019-10-14,0,6
2019-10-15,0,6
2019-10-16,1,9
2019-10-17,0,7
2019-10-18,0,9
2019-10-19,0,4